Regional Weather Roundup
Issued by NWS

Home | Current Version | Previous Version | Graphics & Text | Print | Product List | Glossary On
Versions: 1 2 3 4 5 6 7 8 9 10 11 12 13 14 15 16 17 18 19 20 21 22 23 24 25 26 27 28 29 30 31 32 33 34 35 36 37 38 39 40 41 42 43 44 45 46 47 48 49 50
000
ASUS43 KLOT 260409
RWRIL

ILLINOIS REGIONAL WEATHER ROUNDUP
NATIONAL WEATHER SERVICE CHICAGO/ROMEOVILLE IL
1100 PM CDT SUN JUN 25 2017

NOTE: "FAIR" INDICATES FEW OR NO CLOUDS BELOW 12,000 FEET WITH NO
SIGNIFICANT WEATHER AND/OR OBSTRUCTIONS TO VISIBILITY.

* THESE STATIONS ARE NOT UNDER NWS QUALITY CONTROL. THEY ALSO MAY NOT
  REPORT WEATHER SUCH AS PRECIPITATION OR FOG.

ILZ001-002-007-009-015-016-024-260500-
NORTHWEST ILLINOIS

CITY           SKY/WX    TMP DP  RH WIND       PRES   REMARKS
MOLINE         CLEAR     56  50  80 CALM      30.16R
STERLING*      CLEAR     57  51  80 W5        30.15S
SAVANNA*       CLEAR     61  49  65 W3        30.14S
$$

ILZ003-004-008-010-011-017-018-260500-
NORTH CENTRAL ILLINOIS

CITY           SKY/WX    TMP DP  RH WIND       PRES   REMARKS
ROCKFORD       CLEAR     57  51  80 W6        30.13S
FREEPORT*      CLEAR     54  49  83 SW6       30.15S
ROCHELLE*      PTCLDY    54  50  87 W6        30.14S
DE KALB*       MOCLDY    59  50  70 W8        30.13S
PERU*          CLEAR     55  49  79 W7        30.15S
$$

ILZ005-006-012>014-019>023-260500-
NORTHEAST ILLINOIS

CITY           SKY/WX    TMP DP  RH WIND       PRES   REMARKS
CHICAGO-OHARE  MOCLDY    62  49  62 W9        30.11R
CHICAGO-MIDWAY PTCLDY    62  49  62 W10       30.11S
AURORA         MOCLDY    59  50  72 W8        30.13S
LANSING*       PTCLDY    60  47  62 W8        30.12S
JOLIET*        PTCLDY    61  51  70 W3        30.13S
WAUKEGAN       CLOUDY    57  53  86 VRB5      30.09F
DUPAGE AIRPORT PTCLDY    58  50  75 W5        30.11S
WHEELING       CLOUDY    57  54  89 NW7       30.13R
MORRIS*        CLEAR     56  49  78 W7        30.12F
ROMEOVILLE*    CLEAR     59  47  64 W8        30.12F
NORTHERLY ISL    N/A     63  48  58 W7          N/A
$$

LMZ740>746-260500-
SOUTHERN LAKE MICHIGAN

STATION/POSITION SKY/WX   TEMP    WIND        PRES    VSBY  WAVE
                          AIR SEA DIR/SP/G                  HT/PER
                          (F)     (DEG/KT/KT) (MB)    (MI)  (FT/S)
SOUTHERN BUOY              63 62  310/ 17/ 25 1017.8          2/ 4
WILMETTE HARBOR            59 64  300/ 17/ 25   N/A           2/ 2
HARRISON CRIB              65     290/ 18/ 20   N/A
BURNHAM HARBOR             63                   N/A
CALUMET HARBOR             63     250/  3/  6 1018.9F
BURNS HARBOR               65     290/ 17/ 21 1019.3S
MICHIGAN CITY              64     280/ 22/ 25   N/A
MICHIGAN CITY 6N           64 66  290/ 16/ 21   N/A           5/ 4
ST. JOSEPH                 65 69  300/ 19/ 23 1018.6          5/ 4
$$

ILZ025>027-034>036-040-047-049-050-058-095>099-260500-
WEST-CENTRAL ILLINOIS

CITY           SKY/WX    TMP DP  RH WIND       PRES   REMARKS
QUINCY         CLEAR     62  48  60 NW3       30.19R
GALESBURG*     CLEAR     54  49  85 CALM      30.18R
MACOMB*        CLEAR     55  49  80 W6        30.20S
JACKSONVILLE*  CLEAR     60  49  67 NW6       30.18S
PITTSFIELD*    CLEAR     60  52  73 W3        30.20S
$$

ILZ028>032-037-038-041>044-048-051>054-059>061-260500-
CENTRAL ILLINOIS

CITY           SKY/WX    TMP DP  RH WIND       PRES   REMARKS
PONTIAC        CLEAR     59  53  79 W3        30.16S
BLOOMINGTON    CLEAR     61  50  67 NW3       30.17F
DECATUR        PTCLDY    63  47  55 W3        30.17S
PEORIA         CLEAR     57  52  83 CALM      30.16S
LACON*         CLEAR     55  52  90 CALM      30.15S
LINCOLN*       CLEAR     61  49  65 CALM      30.17S
SPRINGFIELD    PTCLDY    60  50  69 SW5       30.18R
TAYLORVILLE    CLEAR     55  50  82 CALM      30.18S
$$

ILZ033-039-045-046-055>057-062-063-260500-
EAST-CENTRAL ILLINOIS

CITY           SKY/WX    TMP DP  RH WIND       PRES   REMARKS
CHAMPAIGN      CLEAR     57  50  77 NW5       30.16S
RANTOUL*       CLEAR     60  52  72 NW6       30.16S
MATTOON        CLEAR     61  49  64 W5        30.16S
PARIS*         CLEAR     56  51  82 CALM      30.17R
$$

ILZ079-100>102-260500-
SOUTHWEST ILLINOIS

CITY           SKY/WX    TMP DP  RH WIND       PRES   REMARKS
ALTON          CLEAR     57  54  89 CALM      30.19S
BELLEVILLE     PTCLDY    64  52  64 CALM      30.19S
CAHOKIA*       PTCLDY    68  45  43 N6        30.18R
SPARTA*        CLOUDY    68  49  50 N3        30.20R
$$

ILZ064>066-069>071-074>076-080>082-084>086-088>090-092>094-260500-
SOUTH-CENTRAL ILLINOIS

CITY           SKY/WX    TMP DP  RH WIND       PRES   REMARKS
CARBONDALE     CLOUDY    68  56  65 N5        30.18R
CAIRO*         CLEAR     70  60  69 NW3       30.18R
EFFINGHAM*     CLEAR     61  49  65 W3        30.19S
MARION         CLOUDY    68  55  64 N3        30.19R
MT. VERNON     PTCLDY    58  52  80 CALM      30.19R
CENTRALIA*     CLEAR     63  52  68 CALM      30.18R
SALEM*         CLEAR     62  53  71 CALM      30.18S
METROPOLIS*    PTCLDY    66  60  81 CALM      30.17S
$$

ILZ067-068-072-073-078-083-087-091-260500-
SOUTHEAST ILLINOIS

CITY           SKY/WX    TMP DP  RH WIND       PRES   REMARKS
LAWRENCEVILLE  CLEAR     62  52  69 NW6       30.17R
FLORA*         PTCLDY    66  48  52 NW3       30.18S
FAIRFIELD*     CLEAR     65  49  57 CALM      30.17R
HARRISBURG*    PTCLDY    69  52  55 N3        30.18R
ROBINSON*      CLEAR     57  52  85 W5        30.17S
CARMI*         CLEAR     63  54  72 NW5       30.18R
$$

ABBREVIATIONS USED IN REMARKS
   TC - TEMPERATURE IN CELSIUS
  WCI - WIND CHILL INDEX
   HX - HEAT INDEX
  VSB - VISIBILITY
$$





USA.gov is the U.S. government's official web portal to all federal, state and local government web resources and services.